{"data":{"norad_id":63038,"epoch":"2026-09-21T18:42:04.134528Z","epoch_age_seconds":55071,"freshness":"FRESH","line1":"1 63038U 25034K   26264.77921452  .00011313  00000+0  37562-3 0  9995","line2":"2 63038  53.1621  66.9770 0001468  57.1407 302.9736 15.31712301 89111","mean_motion":15.31712301,"eccentricity":0.0001468,"inclination_deg":53.1621,"raan_deg":66.977,"arg_perigee_deg":57.1407,"mean_anomaly_deg":302.9736,"bstar":0.00037562,"rev_number":8911,"period_min":94.012432952316,"perigee_km":469.69791707016,"apogee_km":471.70873659012,"semimajor_km":6848.8403268301,"source":"CELESTRAK","updated_at":"2026-09-22T09:00:49.745191Z"}}